Location: Unspecified
(0.0000°N, 0.0000°E)
Time: 17:10:32
(UTC+00:00)

Explorer 11/Cluster Stage 4 - All Passes

Search period start: 26 May 2022 00:00
Search period end: 05 June 2022 00:00
Orbit: 466 x 1252 km, 28.8° (Epoch: 26 May)

Date Brightness Start Highest point End Pass type
(mag) Time Alt. Az. Time Alt. Az. Time Alt. Az.
26 May - 03:29:11 10° NNW 03:32:21 19° NNE 03:35:57 10° ENE visible
26 May - 05:15:34 10° WNW 05:20:36 83° SSW 05:27:01 10° ESE visible
26 May - 07:05:03 10° WSW 07:09:49 24° SSW 07:15:21 10° SSE daylight
26 May - 14:28:49 10° SSW 14:34:14 20° SSE 14:39:09 10° ESE daylight
26 May - 16:16:44 10° SW 16:23:55 59° SSE 16:29:43 10° ENE daylight
26 May - 18:06:56 10° W 18:12:35 34° NNW 18:17:11 10° NNE daylight
27 May - 03:17:07 10° NNW 03:20:26 22° NNE 03:24:16 10° E visible
27 May - 05:03:52 10° WNW 05:08:39 67° SSW 05:14:46 10° SE visible
27 May - 06:53:47 10° WSW 06:57:57 19° SSW 07:02:42 10° SSE daylight
27 May - 14:16:12 10° SSW 14:22:17 24° SSE 14:27:48 10° ESE daylight
27 May - 16:04:24 10° SW 16:11:54 70° SSE 16:17:59 10° ENE daylight
27 May - 17:55:00 10° W 18:00:34 29° NNW 18:05:12 10° NNE daylight
28 May - 03:05:06 10° NNW 03:08:32 25° NNE 03:12:32 10° E visible
28 May - 04:52:13 10° WNW 04:56:46 53° SSW 05:02:28 10° SE visible
28 May - 06:42:43 10° SW 06:46:06 16° SSW 06:49:53 10° SSE daylight
28 May - 12:18:16 10° S 12:19:47 11° SSE 12:21:18 10° SSE daylight
28 May - 14:03:39 10° SSW 14:10:18 28° SSE 14:16:20 10° E daylight
28 May - 15:52:06 10° WSW 15:59:51 82° SSE 16:06:11 10° ENE daylight
28 May - 17:43:06 10° W 17:48:34 26° NNW 17:53:10 10° NNE daylight
29 May - 02:53:07 10° NNW 02:56:39 31° NNE 03:00:44 10° E visible
29 May - 04:40:39 10° W 04:44:54 41° SSW 04:50:09 10° SE visible
29 May - 06:31:57 10° SW 06:34:18 12° SSW 06:36:49 10° S daylight
29 May - 12:04:59 10° S 12:07:54 12° SSE 12:10:48 10° SE daylight
29 May - 13:51:10 10° SSW 13:58:16 32° SSE 14:04:45 10° E daylight
29 May - 15:39:51 10° WSW 15:47:45 86° NNW 15:54:19 10° ENE daylight
29 May - 17:31:16 10° W 17:36:33 23° NNW 17:41:06 10° NNE daylight
30 May - 02:41:12 10° NW 02:44:46 38° NNE 02:48:55 10° E visible
30 May - 04:29:09 10° W 04:33:03 32° SSW 04:37:48 10° SE visible
30 May - 11:52:10 10° S 11:55:58 14° SSE 11:59:47 10° SE daylight
30 May - 13:38:43 10° SW 13:46:11 37° SSE 13:53:05 10° E daylight
30 May - 15:27:38 10° WSW 15:35:37 74° NNW 15:42:23 10° NE daylight
30 May - 17:19:28 10° WNW 17:24:32 20° NNW 17:28:58 10° NNE daylight
31 May - 02:29:18 10° NW 02:32:53 48° NNE 02:37:03 10° ESE night (unlit)
31 May - 04:17:44 10° W 04:21:15 25° SSW 04:25:22 10° SSE visible
31 May - 11:39:33 10° S 11:44:01 16° SSE 11:48:31 10° ESE daylight
31 May - 13:26:21 10° SW 13:34:04 43° SSE 13:41:19 10° E daylight
31 May - 15:15:28 10° WSW 15:23:28 65° NNW 15:30:24 10° NE daylight
31 May - 17:07:45 10° WNW 17:12:31 18° NNW 17:16:46 10° NNE daylight
01 Jun - 02:17:27 10° NW 02:21:03 64° NNE 02:25:09 10° ESE night (unlit)
01 Jun - 04:06:26 10° WSW 04:09:27 19° SSW 04:12:52 10° SSE visible
01 Jun - 11:27:02 10° SSW 11:32:01 18° SSE 11:37:07 10° ESE daylight
01 Jun - 13:14:01 10° SW 13:21:55 50° SSE 13:29:28 10° ENE daylight
01 Jun - 15:03:20 10° WSW 15:11:19 56° NNW 15:18:21 10° NE daylight
01 Jun - 16:56:06 10° WNW 17:00:30 16° NNW 17:04:31 10° N daylight
02 Jun - 00:20:20 10° NNE 00:21:06 10° NNE 00:21:51 10° NE night (unlit)
02 Jun - 02:05:36 10° WNW 02:09:13 87° NNE 02:13:13 10° ESE night (unlit)
02 Jun - 03:55:21 10° WSW 03:57:40 15° SSW 04:00:13 10° S visible
02 Jun - 11:14:36 10° SSW 11:20:00 20° SSE 11:25:35 10° ESE daylight
02 Jun - 13:01:44 10° SW 13:09:44 57° SSE 13:17:33 10° ENE daylight
02 Jun - 14:51:16 10° WSW 14:59:08 49° NNW 15:06:15 10° NE daylight
02 Jun - 16:44:33 10° WNW 16:48:30 15° NNW 16:52:11 10° N daylight
03 Jun - 00:07:20 10° N 00:09:18 14° NNE 00:11:13 10° ENE night (unlit)
03 Jun - 01:53:50 10° WNW 01:57:24 69° SSW 02:01:15 10° SE night (unlit)
03 Jun - 03:44:44 10° SW 03:45:54 11° SSW 03:47:08 10° S visible
03 Jun - 11:02:13 10° SSW 11:07:56 22° SSE 11:13:57 10° ESE daylight
03 Jun - 12:49:31 10° SW 12:57:32 65° SSE 13:05:33 10° ENE daylight
03 Jun - 14:39:16 10° W 14:46:57 43° NNW 14:54:05 10° NE daylight
03 Jun - 16:33:07 10° NW 16:36:31 13° NNW 16:39:44 10° N daylight
03 Jun - 23:54:51 10° NNW 23:57:29 18° NNE 00:00:02 10° ENE night (unlit)
04 Jun - 01:42:06 10° WNW 01:45:35 50° SSW 01:49:14 10° SE night (unlit)
04 Jun - 10:49:54 10° SSW 10:55:51 25° SSE 11:02:12 10° E daylight
04 Jun - 12:37:20 10° SW 12:45:20 75° SSE 12:53:29 10° ENE daylight
04 Jun - 14:27:19 10° W 14:34:47 38° NNW 14:41:52 10° NE daylight
04 Jun - 16:21:50 10° NW 16:24:33 12° NNW 16:27:10 10° N daylight
04 Jun - 23:42:30 10° NNW 23:45:42 23° NNE 23:48:40 10° E night (unlit)
